CDT,Max TemperatureF,Mean TemperatureF,Min TemperatureF,Max Dew PointF,MeanDew PointF,Min DewpointF,Max Humidity, Mean Humidity, Min Humidity, Max Sea Level PressureIn, Mean Sea Level PressureIn, Min Sea Level PressureIn, Max VisibilityMiles, Mean VisibilityMiles, Min VisibilityMiles, Max Wind SpeedMPH, Mean Wind SpeedMPH, Max Gust SpeedMPH,PrecipitationIn, CloudCover, Events, WindDirDegrees
2013-9-1,82,74,66,72,69,64,100,87,74,29.84,29.80,29.76,10,6,0,8,3,18,0.00,5,Fog,245
2013-9-2,84,74,63,70,63,59,100,73,46,29.97,29.89,29.81,10,10,7,12,6,17,0.00,2,,334
2013-9-3,78,67,55,60,56,54,100,75,50,30.11,30.06,29.98,10,10,9,9,2,,0.00,1,,18
2013-9-4,83,68,52,62,57,51,93,69,45,30.18,30.13,30.09,10,9,5,8,3,,0.00,0,,264
2013-9-5,87,72,56,67,60,55,93,68,43,30.21,30.18,30.14,10,10,9,8,3,,0.00,1,,53
2013-9-6,87,74,60,67,62,58,90,69,48,30.20,30.14,30.05,10,10,10,9,5,,0.00,1,,136
2013-9-7,89,76,63,69,65,61,93,68,43,30.06,30.00,29.94,10,8,3,14,6,21,T,0,,215
2013-9-8,88,78,67,72,68,66,97,76,55,29.99,29.95,29.92,10,9,7,9,3,21,0.01,1,,124
2013-9-9,96,82,67,74,70,67,100,71,41,29.96,29.94,29.89,10,6,0,15,7,26,0.00,0,,182
2013-9-10,98,84,70,72,69,64,93,64,35,30.08,30.04,29.97,10,8,2,14,6,22,0.00,0,,213
2013-9-11,95,83,70,70,66,58,100,65,30,30.12,30.06,30.01,10,8,3,17,7,23,0.00,1,,227
2013-9-12,86,73,59,69,62,47,90,62,33,30.06,30.00,29.94,10,10,9,21,8,29,0.03,2,Rain,309
2013-9-13,73,63,52,56,48,44,93,66,38,30.16,30.11,30.05,10,10,8,15,8,22,0.00,1,,6
2013-9-14,74,60,45,46,42,35,92,59,25,30.20,30.13,30.08,10,10,10,10,5,18,0.00,0,,104
2013-9-15,79,64,48,61,51,44,93,65,36,30.11,30.07,30.00,10,10,8,16,6,23,0.03,4,Rain,194
2013-9-16,69,61,52,58,54,49,93,74,55,30.32,30.25,30.13,10,8,4,16,8,23,0.00,6,,40
2013-9-17,77,63,49,55,51,48,93,66,38,30.31,30.23,30.12,10,10,7,13,6,17,T,3,,97
2013-9-18,87,74,60,69,62,54,93,71,48,30.12,30.05,29.98,10,10,10,14,7,21,0.00,2,,169
2013-9-19,93,82,71,71,69,67,93,69,44,30.00,29.94,29.86,10,10,6,16,9,24,0.03,2,Rain,191
2013-9-20,78,67,56,71,65,52,93,83,72,29.91,29.87,29.83,10,9,2,14,7,22,0.37,5,Rain-Thunderstorm,259
2013-9-21,73,62,50,52,49,45,96,67,38,29.94,29.89,29.85,10,10,10,16,6,22,0.00,1,,320
2013-9-22,74,59,44,49,47,42,92,64,35,30.05,30.00,29.96,10,10,10,10,4,15,0.00,0,,57
2013-9-23,77,61,45,48,46,43,93,63,33,30.10,30.05,30.01,10,10,10,14,7,21,0.00,0,,98
2013-9-24,80,64,47,57,52,45,93,68,43,30.03,29.95,29.88,10,10,10,13,7,19,T,1,,101
2013-9-25,83,70,57,59,55,51,80,60,40,29.93,29.89,29.86,10,10,10,12,6,16,0.00,2,,63
2013-9-26,84,69,54,53,49,41,89,56,23,30.07,30.02,29.94,10,10,10,9,5,,0.00,0,,77
2013-9-27,84,67,50,54,50,47,93,61,28,30.17,30.11,30.06,10,10,10,23,6,67,0.00,0,,116
2013-9-28,86,69,52,59,54,50,96,65,34,30.11,30.03,29.97,10,10,10,22,12,30,T,3,Rain,168
2013-9-29,75,66,56,63,53,45,97,66,35,30.05,30.01,29.97,10,10,10,16,7,25,0.08,4,Rain,348
2013-9-30,79,65,51,60,55,48,100,71,42,30.02,29.98,29.92,10,6,0,16,7,22,0.00,4,,135